PBO Station Position Time Series. Reference Frame : NAM14
Format Version,1.1.1
4-character ID,ORVB
Station name,Oroville_Dam
Begin Date, 1996-11-21
End Date, 2023-06-26
Release Date, 2023-06-27
Reference position, 39.5546270063 North Latitude, -121.5002915130 East Longitude, 340.01634 meters elevation,
Date, North (mm), East (mm), Vertical (mm), North Std. Deviation (mm), East Std. Deviation (mm),              Vertical Std. Deviation (mm), Quality,
1996-11-21,5.89, 0.00, 73.14, 29.52, 12.12, 90.96, repro,
1996-11-22,0.00, 5.76, 0.00, 2.62, 2.08, 9.70, repro,
1996-11-23,-2.99, 6.98, 12.02, 2.56, 2.02, 9.26, repro,
1996-11-24,-1.32, 7.78, 7.70, 2.65, 2.12, 9.59, repro,
1996-11-25,-0.98, 7.01, 0.21, 2.58, 1.95, 9.04, repro,
1996-11-27,-1.84, 5.91, -1.57, 2.51, 1.89, 8.85, repro,
1996-11-28,-1.65, 6.07, 8.11, 2.44, 2.07, 9.38, repro,
1996-11-29,-2.65, 7.34, 16.94, 2.91, 2.37, 10.27, repro,
1996-11-30,-0.57, 7.87, 11.77, 2.86, 2.12, 10.29, repro,
1996-12-01,-1.41, 8.81, 11.63, 2.70, 2.18, 9.79, repro,
1996-12-02,-2.99, 7.31, 6.24, 2.69, 2.05, 9.72, repro,
1996-12-03,-4.13, 6.34, 9.65, 2.40, 1.91, 8.80, repro,
1996-12-04,-6.12, 4.10, 8.43, 2.47, 1.92, 8.95, repro,
1996-12-05,-1.82, 8.09, 19.94, 2.68, 1.99, 9.51, repro,
1996-12-06,-2.56, 7.47, 19.86, 2.87, 2.07, 10.03, repro,
1996-12-07,-3.49, 7.28, 18.84, 2.48, 1.92, 8.87, repro,
1996-12-08,-1.53, 7.59, 19.96, 2.66, 2.05, 9.43, repro,
1996-12-09,-3.23, 7.36, 18.73, 2.79, 2.07, 9.60, repro,
1996-12-10,-2.87, 7.58, 14.17, 2.71, 1.92, 9.24, repro,
1996-12-11,-2.15, 7.26, 17.90, 2.36, 1.86, 8.51, repro,
1996-12-12,-1.06, 8.32, -3.78, 2.40, 1.90, 8.64, repro,
1996-12-13,-2.98, 7.51, 4.87, 2.50, 1.94, 8.88, repro,
1996-12-14,-2.50, 8.63, 2.18, 2.50, 1.96, 8.84, repro,
1996-12-15,-2.06, 7.92, -4.82, 2.35, 1.87, 8.48, repro,
1996-12-16,-1.45, 8.13, 0.19, 2.27, 1.76, 8.20, repro,
1996-12-17,-3.27, 8.36, -3.73, 2.56, 1.87, 9.15, repro,
1996-12-18,-2.52, 6.85, 0.88, 2.39, 1.84, 8.69, repro,
1996-12-19,-3.35, 7.63, 7.78, 2.44, 1.87, 8.76, repro,
1996-12-20,-3.85, 7.94, 2.82, 2.39, 1.82, 8.65, repro,
1996-12-21,-3.06, 7.86, 7.60, 2.39, 1.83, 8.52, repro,
1996-12-22,-1.75, 8.23, 13.38, 2.38, 1.85, 8.49, repro,
1996-12-23,-2.27, 7.81, 1.22, 2.53, 1.94, 9.01, repro,
1996-12-24,-2.58, 8.27, 3.48, 2.41, 1.83, 8.64, repro,
1996-12-25,-1.73, 8.34, 1.73, 2.43, 1.86, 8.68, repro,
1996-12-26,-2.44, 7.40, 4.59, 2.42, 1.86, 8.60, repro,
1996-12-27,-1.74, 8.44, 13.83, 2.55, 1.92, 9.26, repro,
1996-12-28,-2.20, 8.02, 12.24, 2.42, 1.81, 8.57, repro,
1996-12-29,-1.14, 10.61, 14.53, 2.43, 1.95, 8.89, repro,
1996-12-30,-5.13, 7.46, 2.39, 2.43, 1.88, 8.71, repro,
1996-12-31,-2.42, 8.31, 4.42, 2.44, 1.94, 9.13, repro,
1997-01-01,-2.04, 9.61, 4.74, 2.33, 1.94, 8.78, repro,
1997-01-02,-3.13, 7.81, 11.84, 2.64, 2.19, 10.18, repro,
1997-01-03,-4.26, 10.20, 0.35, 2.47, 2.00, 9.21, repro,
1997-01-04,-2.04, 9.31, -3.43, 2.35, 1.91, 8.78, repro,
1997-01-05,-2.40, 8.31, -2.57, 3.99, 3.53, 15.67, repro,
1997-01-06,-2.15, 10.59, -12.94, 2.68, 2.13, 10.21, repro,
1997-01-07,-2.30, 10.75, -8.15, 2.54, 2.03, 9.67, repro,
1997-01-08,-2.65, 8.68, -3.75, 2.39, 1.92, 8.75, repro,
1997-01-09,-3.75, 7.58, 4.68, 2.70, 2.26, 10.57, repro,
1997-01-10,-2.32, 8.59, -4.27, 2.36, 1.92, 8.82, repro,
1997-01-11,-2.15, 7.65, -1.94, 2.32, 1.87, 8.67, repro,
1997-01-12,-0.50, 7.57, -1.68, 2.34, 1.85, 8.72, repro,
1997-01-13,-0.71, 7.94, -2.94, 2.49, 2.05, 9.68, repro,
1997-01-14,-2.21, 8.24, -2.67, 2.75, 2.28, 10.84, repro,
1997-01-15,-3.72, 9.18, -9.13, 2.54, 2.11, 9.89, repro,
1997-01-16,-2.20, 10.00, -11.29, 2.41, 1.97, 9.11, repro,
1997-01-17,-2.03, 8.07, -10.23, 2.72, 2.21, 10.21, repro,
1997-01-18,-1.82, 8.76, -9.76, 2.51, 2.01, 9.22, repro,
1997-01-19,-3.22, 7.43, -7.51, 2.39, 1.99, 8.92, repro,
1997-01-20,-3.04, 7.25, 1.44, 2.37, 1.89, 8.69, repro,
1997-01-21,-2.10, 9.05, 0.86, 2.35, 1.93, 8.91, repro,
1997-01-22,-2.29, 9.20, 2.43, 2.51, 1.98, 9.39, repro,
1997-01-23,-0.54, 9.16, -8.19, 2.99, 2.24, 10.89, repro,
1997-01-24,-2.19, 7.02, -6.96, 2.45, 2.08, 9.47, repro,
1997-01-25,-2.06, 9.44, -3.77, 2.49, 2.07, 9.63, repro,
1997-01-26,-3.18, 11.40, -3.03, 2.34, 1.97, 8.85, repro,
1997-01-27,-4.43, 8.91, -12.00, 4.39, 3.00, 14.77, repro,
1997-01-28,-2.88, 9.19, -19.64, 2.41, 1.93, 9.14, repro,
1997-01-29,-2.23, 9.36, -19.62, 2.33, 1.90, 8.86, repro,
1997-01-30,-1.14, 8.51, -12.03, 2.28, 1.84, 8.50, repro,
1997-01-31,-1.44, 9.39, -11.71, 2.33, 1.92, 8.90, repro,
1997-02-01,-4.69, 8.12, 0.14, 2.30, 1.86, 8.66, repro,
1997-02-02,-2.21, 6.92, -4.38, 2.53, 2.09, 9.94, repro,
1997-02-03,-2.71, 8.75, -11.17, 2.60, 2.18, 10.36, repro,
1997-02-04,-2.32, 7.97, -16.85, 2.81, 2.16, 11.14, repro,
1997-02-05,-1.50, 7.97, -14.87, 2.48, 2.01, 10.40, repro,
1997-02-06,-2.65, 8.76, -14.63, 2.38, 1.96, 9.74, repro,
1997-02-07,-3.23, 8.33, -15.70, 2.45, 2.02, 9.92, repro,
1997-02-08,-2.26, 7.10, -13.81, 2.44, 2.02, 9.90, repro,
1997-02-09,-2.57, 9.41, -5.75, 2.54, 2.09, 10.00, repro,
1997-02-10,-2.88, 7.95, -12.93, 2.67, 2.14, 10.92, repro,
1997-02-11,-1.39, 8.36, -2.14, 2.34, 1.85, 9.43, repro,
1997-02-12,-2.07, 7.58, -3.10, 2.29, 1.82, 9.12, repro,
1997-02-13,-2.27, 7.32, -8.93, 2.29, 1.82, 9.15, repro,
1997-02-14,-3.51, 7.63, -7.58, 2.33, 1.90, 11.41, repro,
1997-02-15,-2.32, 8.09, -21.70, 2.48, 1.96, 11.60, repro,
1997-02-16,-2.36, 8.89, -11.16, 2.43, 2.08, 11.47, repro,
1997-02-17,-2.09, 8.39, -6.98, 2.47, 2.08, 11.55, repro,
1997-02-18,-3.57, 7.21, -9.95, 2.65, 2.07, 12.13, repro,
1997-02-19,-4.37, 8.03, -3.32, 2.41, 1.91, 10.96, repro,
1997-02-20,-2.30, 6.81, -5.69, 2.51, 2.01, 11.47, repro,
1997-02-21,-2.31, 8.05, -14.18, 2.46, 1.98, 11.31, repro,
1997-02-22,-0.53, 7.19, -14.81, 2.60, 2.12, 11.97, repro,
1997-02-23,-1.49, 6.28, -18.20, 2.53, 2.02, 11.64, repro,
1997-02-24,-5.78, 4.07, -6.78, 2.44, 1.96, 9.23, repro,
1997-02-25,-0.86, 7.72, -6.71, 2.46, 1.96, 8.78, repro,
1997-02-26,-3.52, 6.59, -4.53, 2.43, 2.04, 9.26, repro,
1997-02-27,1.57, 8.41, -4.12, 2.74, 2.06, 10.08, repro,
1997-02-28,-0.76, 8.54, -4.66, 2.52, 2.08, 9.52, repro,
1997-03-01,-3.13, 6.95, 6.05, 2.56, 2.06, 9.93, repro,
1997-03-02,-2.07, 7.73, 1.45, 2.42, 1.90, 8.99, repro,
1997-03-03,-3.00, 8.98, 3.56, 2.36, 1.93, 8.81, repro,
1997-03-04,-1.24, 7.86, -9.43, 2.45, 2.04, 9.29, repro,
1997-03-05,-3.17, 7.47, -1.93, 2.88, 2.31, 10.81, repro,
1997-03-06,-1.87, 8.94, 4.30, 2.75, 2.21, 10.34, repro,
1997-03-07,-2.68, 6.98, -1.31, 2.33, 1.90, 8.65, repro,
1997-03-08,-1.84, 9.39, -6.72, 2.36, 1.91, 8.78, repro,
1997-03-09,-3.48, 7.74, -3.33, 2.60, 2.14, 9.73, repro,
1997-03-10,-1.97, 7.01, -8.63, 2.63, 2.15, 9.62, repro,
1997-03-11,-3.20, 7.45, 2.35, 2.81, 2.44, 11.05, repro,
1997-03-12,-2.75, 8.12, -5.81, 2.46, 1.96, 9.12, repro,
1997-03-13,-3.53, 7.36, -9.41, 2.42, 2.07, 9.29, repro,
1997-03-14,-2.13, 8.37, -6.44, 2.44, 1.93, 9.16, repro,
1997-03-15,-1.66, 8.26, 2.00, 2.35, 1.90, 8.93, repro,
1997-03-16,-3.48, 6.92, 4.14, 2.19, 1.75, 8.05, repro,
1997-03-17,-2.81, 7.21, 1.31, 2.21, 1.80, 8.26, repro,
1997-03-18,-2.93, 7.79, -2.01, 2.17, 1.73, 8.11, repro,
1997-03-19,-2.62, 8.08, -11.93, 2.18, 1.73, 8.02, repro,
1997-03-20,-3.04, 7.21, -0.57, 2.16, 1.73, 8.06, repro,
1997-03-21,-4.40, 8.27, 3.08, 2.21, 1.79, 8.31, repro,
1997-03-22,-2.17, 8.57, -1.62, 2.16, 1.75, 8.08, repro,
1997-03-23,-2.40, 7.73, -1.82, 2.17, 1.74, 8.07, repro,
1997-03-24,-2.50, 8.13, -5.09, 2.15, 1.73, 8.35, repro,
1997-03-25,-2.37, 8.47, -4.23, 2.20, 1.79, 8.14, repro,
1997-03-26,-0.96, 9.06, 3.07, 2.24, 1.78, 8.43, repro,
1997-03-27,-2.56, 8.45, 0.50, 2.25, 1.78, 8.27, repro,
1997-03-28,-3.13, 9.31, 2.55, 2.30, 1.87, 8.18, repro,
1997-03-29,-2.61, 8.61, -1.13, 2.26, 1.79, 8.02, repro,
1997-03-30,-2.38, 6.77, -3.89, 2.41, 1.92, 8.73, repro,
1997-03-31,-2.15, 7.58, -6.69, 2.31, 1.91, 8.35, repro,
1997-04-01,-2.80, 6.66, 0.41, 2.31, 1.87, 8.29, repro,
1997-04-02,-2.68, 8.41, -3.79, 2.38, 1.86, 8.42, repro,
1997-04-03,-1.13, 8.80, -5.35, 2.26, 1.81, 8.00, repro,
1997-04-04,-1.72, 7.60, 4.34, 2.34, 1.86, 8.32, repro,
1997-04-05,-1.64, 6.85, -1.49, 2.37, 1.92, 8.55, repro,
1997-04-06,-1.33, 8.27, -0.80, 2.28, 1.81, 8.28, repro,
1997-04-07,-3.82, 8.91, -4.75, 2.39, 1.94, 8.55, repro,
1997-04-08,-2.73, 8.89, -5.79, 2.32, 1.88, 8.22, repro,
1997-04-09,-2.56, 7.98, -3.65, 2.34, 1.86, 8.25, repro,
1997-04-10,-2.74, 8.06, -8.67, 2.74, 2.17, 9.73, repro,
1997-04-11,-2.67, 7.83, -6.66, 2.30, 1.82, 8.11, repro,
1997-04-12,-2.42, 7.90, -1.91, 2.32, 1.90, 8.22, repro,
1997-04-13,-3.65, 9.32, -1.53, 2.49, 1.97, 8.83, repro,
1997-04-14,-3.77, 8.63, 0.52, 2.47, 1.92, 8.70, repro,
1997-04-15,-2.66, 8.37, -0.52, 2.36, 1.92, 8.49, repro,
1997-04-16,-2.05, 8.24, -6.51, 2.47, 2.02, 8.92, repro,
1997-04-17,-1.46, 6.44, -6.89, 2.35, 1.93, 8.59, repro,
1997-04-18,-2.87, 8.06, 0.54, 2.36, 1.92, 8.44, repro,
1997-04-19,-2.35, 7.81, 0.44, 2.36, 1.94, 8.59, repro,
1997-04-20,-2.68, 7.78, 5.35, 2.34, 1.88, 8.34, repro,
1997-04-21,-1.64, 8.35, -10.57, 2.36, 1.90, 8.43, repro,
1997-04-22,-1.21, 7.70, -2.01, 2.33, 1.86, 8.33, repro,
1997-04-23,-2.80, 8.58, -0.48, 2.42, 1.88, 8.53, repro,
1997-04-24,-2.14, 7.47, -2.58, 2.33, 1.87, 8.28, repro,
1997-04-25,-3.45, 8.44, -5.62, 2.37, 1.93, 8.53, repro,
1997-04-26,-2.44, 8.63, -0.50, 2.38, 1.93, 8.56, repro,
1997-04-27,-2.90, 6.39, -10.38, 2.29, 1.84, 8.28, repro,
1997-04-28,-2.57, 7.05, 1.05, 2.80, 2.48, 10.33, repro,
1997-04-29,-3.88, 7.59, 2.97, 2.43, 1.90, 8.58, repro,
1997-04-30,-2.28, 8.63, -6.54, 2.32, 1.87, 8.28, repro,
1997-05-01,-3.90, 8.67, -15.61, 2.33, 1.88, 8.41, repro,
1997-05-02,-2.03, 6.99, -8.49, 2.25, 1.81, 8.09, repro,
1997-05-03,-2.91, 6.33, -13.20, 2.27, 1.83, 8.11, repro,
1997-05-04,-3.31, 9.38, -12.27, 2.28, 1.81, 8.15, repro,
1997-05-05,-1.94, 8.41, -12.82, 2.37, 1.86, 8.36, repro,
1997-05-06,-2.56, 8.60, -15.02, 2.34, 1.83, 8.33, repro,
1997-05-07,-3.46, 7.94, -9.00, 2.32, 1.86, 8.38, repro,
1997-05-08,-2.91, 7.36, -13.58, 2.26, 1.82, 8.09, repro,
1997-05-09,-3.22, 7.11, -10.26, 2.26, 1.81, 8.18, repro,
1997-05-10,-3.37, 7.97, -7.61, 2.33, 1.90, 8.41, repro,
1997-05-11,-2.65, 8.28, -3.52, 2.30, 1.84, 8.26, repro,
1997-05-12,-1.32, 8.30, -10.63, 2.28, 1.83, 8.19, repro,
1997-05-13,-2.87, 7.98, -0.85, 2.24, 1.81, 8.08, repro,
1997-05-14,-3.36, 7.60, -3.34, 2.28, 1.84, 8.27, repro,
1997-05-15,-1.83, 7.37, -6.79, 2.26, 1.82, 8.17, repro,
1997-05-16,-3.47, 8.18, -7.19, 2.29, 1.85, 8.34, repro,
1997-05-17,-2.93, 6.92, -5.80, 2.44, 1.95, 8.78, repro,
1997-05-18,-3.15, 7.86, -5.00, 2.25, 1.80, 8.08, repro,
1997-05-19,-1.66, 7.52, -1.85, 2.33, 1.95, 8.62, repro,
1997-05-20,-2.75, 8.68, -1.57, 2.30, 1.87, 8.46, repro,
1997-05-21,-2.08, 7.69, -8.94, 2.24, 1.86, 8.19, repro,
1997-05-22,-1.71, 8.72, -3.13, 2.24, 1.86, 8.19, repro,
1997-05-23,-3.62, 8.44, -4.47, 2.26, 1.84, 8.34, repro,
1997-05-24,-3.12, 7.56, 1.73, 2.22, 1.83, 8.38, repro,
1997-05-25,-3.20, 8.41, 7.37, 2.18, 1.81, 8.31, repro,
1997-05-26,-1.46, 8.41, -0.31, 2.33, 1.92, 8.81, repro,
1997-05-27,-3.38, 6.19, -3.98, 2.25, 1.88, 8.67, repro,
1997-05-28,-2.99, 6.89, -5.87, 2.25, 1.86, 8.41, repro,
1997-05-29,-4.12, 6.69, 0.39, 2.17, 1.74, 8.10, repro,
1997-05-30,-1.83, 7.97, -0.32, 2.18, 1.74, 8.13, repro,
1997-05-31,-2.37, 7.80, 2.45, 2.17, 1.75, 8.16, repro,
1997-06-01,-2.38, 7.17, -11.72, 2.17, 1.80, 8.20, repro,
1997-06-02,-3.34, 7.46, -2.50, 2.21, 1.80, 8.30, repro,
1997-06-03,-2.81, 9.25, -9.99, 2.19, 1.74, 8.20, repro,
1997-06-04,-2.26, 8.55, -4.17, 2.18, 1.74, 8.10, repro,
1997-06-05,-1.62, 7.31, -1.88, 2.17, 1.76, 8.14, repro,
1997-06-06,-1.49, 5.71, 2.62, 2.29, 1.83, 8.56, repro,
1997-06-07,-3.01, 6.18, 3.49, 2.18, 1.79, 8.73, repro,
1997-06-08,-3.28, 5.93, -2.13, 2.24, 1.82, 8.40, repro,
1997-06-09,-4.16, 7.58, -4.98, 2.29, 1.91, 8.71, repro,
1997-06-10,-1.97, 7.55, 2.82, 2.50, 2.06, 9.44, repro,
1997-06-11,-2.47, 7.87, -3.41, 2.46, 2.02, 8.82, repro,
1997-06-12,-1.70, 5.05, -8.75, 2.32, 1.88, 8.41, repro,
1997-06-13,-0.58, 6.91, -2.14, 2.44, 2.06, 9.18, repro,
1997-06-14,-3.39, 8.75, -1.33, 2.32, 1.97, 8.39, repro,
1997-06-15,-3.42, 8.42, 4.72, 2.30, 1.88, 8.27, repro,
1997-06-16,-2.04, 7.22, 3.25, 2.30, 1.87, 8.25, repro,
1997-06-17,-1.68, 6.01, -5.02, 2.44, 1.97, 8.74, repro,
1997-06-18,-2.97, 6.38, -2.24, 2.29, 1.85, 8.22, repro,
1997-06-19,-4.83, 5.89, -4.35, 2.38, 2.00, 8.71, repro,
1997-06-20,-1.51, 9.00, 2.10, 2.38, 1.94, 8.47, repro,
1997-06-21,-1.83, 8.09, -0.87, 2.31, 1.88, 8.29, repro,
1997-06-22,-2.04, 5.03, -2.73, 2.40, 1.91, 8.63, repro,
1997-06-23,-1.74, 5.03, -6.90, 2.22, 1.80, 8.03, repro,
1997-06-24,-4.20, 6.80, -0.36, 2.28, 1.86, 8.23, repro,
1997-06-25,-3.05, 7.80, -1.70, 2.25, 1.85, 8.13, repro,
1997-06-26,-2.98, 7.45, 0.31, 2.24, 1.83, 8.08, repro,
1997-06-27,-2.43, 7.04, 6.73, 2.32, 1.93, 8.33, repro,
1997-06-28,-2.84, 7.67, 3.30, 2.29, 1.89, 8.34, repro,
1997-06-29,-3.25, 7.03, 10.01, 2.24, 1.82, 8.18, repro,
1997-06-30,-4.42, 7.37, 1.08, 2.24, 1.82, 8.24, repro,
1997-07-01,-3.12, 7.91, 3.52, 2.30, 1.86, 8.39, repro,
1997-07-02,-3.20, 6.68, 11.38, 2.33, 1.89, 8.55, repro,
1997-07-03,-1.86, 6.74, 2.97, 2.24, 1.82, 8.09, repro,
1997-07-04,-3.11, 6.18, 2.64, 2.24, 1.82, 8.07, repro,
1997-07-05,-3.61, 6.35, 0.09, 2.34, 1.85, 8.64, repro,
1997-07-06,-2.31, 7.91, 5.30, 2.23, 1.81, 8.05, repro,
1997-07-07,-3.66, 5.81, 3.32, 2.24, 1.83, 8.16, repro,
1997-07-08,-2.56, 7.45, -4.40, 2.31, 1.86, 8.51, repro,
1997-07-09,-0.91, 6.43, 5.99, 2.25, 1.85, 8.23, repro,
1997-07-10,-3.99, 7.40, 0.65, 2.25, 1.83, 8.35, repro,
1997-07-11,-3.89, 5.84, 3.74, 2.27, 1.86, 8.21, repro,
1997-07-12,-3.49, 8.36, 1.39, 2.24, 1.88, 8.43, repro,
1997-07-13,-3.06, 6.60, 2.29, 2.24, 1.82, 8.21, repro,
1997-07-14,-3.84, 6.04, 5.67, 2.34, 1.89, 8.47, repro,
1997-07-15,-3.36, 5.92, -4.17, 2.31, 1.85, 8.41, repro,
1997-07-16,-1.89, 6.03, -12.52, 2.37, 1.88, 8.68, repro,
1997-07-17,-5.51, 6.38, 5.88, 2.23, 1.83, 8.13, repro,
1997-07-18,-5.77, 4.06, -2.71, 2.22, 1.82, 8.13, repro,
1997-07-19,-4.69, 5.19, -3.83, 2.31, 1.86, 8.26, repro,
1997-07-20,-3.83, 5.45, 3.81, 2.37, 1.90, 8.55, repro,
1997-07-21,-3.43, 4.82, 1.53, 2.24, 1.80, 8.00, repro,
1997-07-22,-5.21, 6.21, -0.12, 2.22, 1.81, 8.05, repro,
1997-07-23,-5.48, 6.06, -1.25, 2.35, 1.87, 8.59, repro,
1997-07-24,-3.79, 6.31, -4.47, 2.30, 1.88, 8.46, repro,
1997-07-25,-3.14, 3.45, 1.47, 2.33, 1.86, 8.39, repro,
1997-07-26,-3.07, 6.78, -2.27, 2.42, 1.87, 8.81, repro,
1997-07-27,-4.30, 5.28, 7.14, 2.40, 1.88, 8.64, repro,
1997-07-28,-3.75, 5.75, 13.47, 2.32, 1.84, 8.39, repro,
1997-07-29,-3.34, 5.79, -0.12, 2.33, 1.86, 8.51, repro,
1997-07-30,-4.18, 4.04, 3.11, 2.32, 1.83, 8.36, repro,
1997-07-31,-3.35, 6.15, 6.68, 2.48, 1.97, 9.00, repro,
1997-08-01,-3.03, 6.76, 0.75, 2.30, 1.87, 8.32, repro,
1997-08-02,-5.29, 5.08, 6.60, 2.31, 1.83, 8.32, repro,
1997-08-03,-3.72, 5.99, 7.23, 2.32, 1.83, 8.37, repro,
1997-08-04,-3.51, 5.79, 2.07, 2.34, 1.85, 8.38, repro,
1997-08-05,-3.80, 4.91, 2.40, 2.26, 1.81, 7.98, repro,
1997-08-06,-4.41, 5.36, 0.42, 2.27, 1.83, 8.08, repro,
1997-08-07,-4.96, 6.40, 6.53, 2.31, 1.82, 8.27, repro,
1997-08-08,-3.56, 5.89, 10.83, 2.45, 1.91, 9.00, repro,
1997-08-09,-4.44, 5.42, 15.89, 2.32, 1.88, 8.37, repro,
1997-08-10,-4.34, 5.12, 10.54, 2.32, 1.82, 8.29, repro,
1997-08-11,-4.19, 3.89, 0.99, 2.23, 1.79, 7.88, repro,
1997-08-12,-5.70, 4.99, 4.89, 2.36, 1.86, 8.47, repro,
1997-08-14,-4.51, 4.98, 11.26, 2.35, 1.86, 8.49, repro,
1997-08-15,-6.21, 5.22, 14.91, 2.36, 1.88, 8.40, repro,
1997-08-16,-3.28, 5.50, 8.85, 2.30, 1.83, 8.28, repro,
1997-08-17,-4.54, 5.76, 4.62, 2.30, 1.81, 8.28, repro,
1997-08-18,-3.85, 6.10, 7.47, 2.17, 1.78, 7.68, repro,
1997-08-19,-2.73, 6.13, 8.40, 2.29, 1.88, 8.46, repro,
1997-08-20,-4.78, 5.42, 13.40, 2.28, 1.88, 8.39, repro,
1997-08-21,-4.50, 4.03, 6.01, 2.21, 1.84, 8.04, repro,
1997-08-22,-3.81, 5.01, 5.89, 2.29, 1.88, 8.41, repro,
1997-08-23,-4.54, 5.41, 21.86, 2.31, 1.88, 8.46, repro,
1997-08-24,-1.75, 7.73, 2.21, 2.34, 1.99, 8.59, repro,
1997-08-25,-4.74, 6.16, 10.39, 2.38, 1.91, 8.71, repro,
1997-08-26,-4.07, 6.47, 6.97, 2.25, 1.87, 8.35, repro,
1997-08-27,-6.32, 4.24, 13.27, 2.28, 1.86, 8.21, repro,
1997-08-28,-4.14, 4.74, 5.16, 2.25, 1.87, 8.25, repro,
1997-08-29,-4.32, 5.13, 5.80, 2.19, 1.79, 7.78, repro,
1997-08-30,-4.98, 5.54, 9.50, 2.19, 1.80, 7.75, repro,
1997-08-31,-4.72, 5.58, 11.96, 2.23, 1.84, 8.02, repro,
1997-09-01,-4.92, 4.57, 12.60, 2.17, 1.79, 7.71, repro,
1997-09-02,-4.78, 7.61, 20.76, 2.18, 1.79, 7.80, repro,
1997-09-03,-3.95, 6.31, -1.12, 2.26, 1.81, 7.99, repro,
1997-09-04,-5.25, 4.86, 2.54, 2.19, 1.80, 7.80, repro,
1997-09-05,-4.25, 5.44, 7.05, 2.15, 1.78, 7.75, repro,
1997-09-06,-4.07, 5.73, -1.45, 2.17, 1.79, 7.78, repro,
1997-09-07,-3.23, 4.95, 11.51, 2.17, 1.78, 7.78, repro,
1997-09-08,-1.26, 6.28, 11.28, 2.29, 1.86, 8.16, repro,
1997-09-09,-5.38, 5.53, 7.47, 2.29, 1.93, 8.36, repro,
1997-09-10,-3.46, 3.51, -1.50, 2.19, 1.79, 7.96, repro,
1997-09-11,-4.50, 6.27, 9.93, 2.30, 1.81, 8.39, repro,
1997-09-12,-3.66, 5.44, 14.99, 2.31, 1.82, 8.25, repro,
1997-09-13,-4.32, 5.11, 8.68, 2.23, 1.79, 7.94, repro,
1997-09-14,-3.46, 6.48, 15.75, 2.17, 1.78, 7.74, repro,
1997-09-15,-4.91, 5.27, 7.19, 2.26, 1.86, 8.12, repro,
1997-09-16,-3.40, 5.09, 6.06, 2.32, 1.91, 8.45, repro,
1997-09-17,-3.31, 5.44, 12.58, 2.17, 1.77, 7.73, repro,
1997-09-18,-3.60, 5.24, 0.57, 2.20, 1.84, 7.89, repro,
1997-09-19,-4.06, 5.25, 6.92, 2.18, 1.78, 7.78, repro,
1997-09-20,-3.96, 3.23, 9.47, 2.26, 1.92, 8.12, repro,
1997-09-21,-4.35, 5.05, 1.47, 2.18, 1.78, 7.85, repro,
1997-09-22,-4.07, 6.18, 2.99, 2.19, 1.83, 7.97, repro,
1997-09-23,-3.24, 6.58, 4.72, 2.28, 1.81, 8.09, repro,
1997-09-24,-4.28, 7.05, 8.94, 2.22, 1.79, 7.94, repro,
1997-09-25,-4.69, 5.71, 20.59, 2.64, 2.17, 9.75, repro,
1997-09-26,-3.54, 5.90, 9.66, 2.27, 1.86, 8.06, repro,
1997-09-27,-3.88, 3.91, 9.86, 2.27, 1.97, 8.50, repro,
1997-09-28,-4.37, 5.79, 8.04, 2.37, 1.89, 8.62, repro,
1997-09-29,-4.48, 5.64, 8.93, 2.27, 1.82, 8.17, repro,
1997-09-30,-4.14, 6.85, 11.64, 2.19, 1.79, 7.83, repro,
1997-10-01,-4.54, 6.11, 14.97, 2.20, 1.81, 7.93, repro,
1997-10-02,-4.74, 4.73, 19.50, 2.24, 1.83, 8.07, repro,
1997-10-03,-4.01, 6.18, 13.49, 2.29, 1.87, 8.30, repro,
1997-10-04,-4.11, 5.64, 15.34, 2.35, 1.85, 8.35, repro,
1997-10-05,-3.44, 5.43, 15.85, 2.32, 1.88, 8.30, repro,
1997-10-06,-2.36, 4.97, 8.51, 2.54, 2.08, 9.22, repro,
1997-10-07,-3.28, 4.66, 1.88, 2.27, 1.82, 8.38, repro,
1997-10-08,-5.16, 4.52, 5.56, 2.26, 1.82, 8.26, repro,
1997-10-09,-4.06, 4.40, 4.17, 2.27, 1.83, 8.26, repro,
1997-10-10,-3.73, 4.47, -0.53, 2.31, 1.89, 8.35, repro,
1997-10-11,-3.99, 3.64, -1.74, 2.26, 1.81, 8.08, repro,
1997-10-12,-4.07, 4.86, -5.26, 2.32, 1.88, 8.38, repro,
1997-10-13,-3.43, 5.31, -1.30, 2.35, 1.89, 8.43, repro,
1997-10-14,-4.67, 7.07, -0.16, 2.72, 2.13, 9.65, repro,
1997-10-15,-5.29, 7.33, 4.91, 2.47, 1.94, 8.65, repro,
1997-10-16,-3.40, 5.83, -2.86, 2.26, 1.89, 8.24, repro,
1997-10-17,-3.81, 5.20, 2.60, 2.59, 2.00, 9.25, repro,
1997-10-18,-3.35, 5.37, -1.69, 2.34, 1.82, 8.23, repro,
1997-10-19,-5.05, 5.25, 4.07, 2.33, 1.85, 8.34, repro,
1997-10-20,-4.73, 6.26, 10.01, 2.71, 2.08, 9.42, repro,
1997-10-21,-4.66, 6.32, 3.79, 2.39, 1.94, 8.68, repro,
1997-10-22,-3.95, 6.64, 2.24, 2.40, 1.94, 8.71, repro,
1997-10-23,-3.41, 4.55, 1.28, 2.52, 1.95, 8.81, repro,
1997-10-24,-2.51, 6.11, 1.50, 2.41, 1.88, 8.46, repro,
1997-10-25,-3.71, 5.86, 2.66, 2.50, 1.91, 8.85, repro,
1997-10-26,-4.61, 5.43, 7.03, 2.40, 1.92, 8.64, repro,
1997-10-27,-4.19, 5.44, 2.89, 2.72, 2.18, 9.71, repro,
1997-10-28,-6.25, 5.98, 0.52, 2.63, 2.02, 9.16, repro,
1997-10-29,-3.39, 6.21, 7.05, 2.48, 1.97, 8.99, repro,
1997-10-30,-2.60, 5.67, -6.39, 2.97, 2.58, 11.66, repro,
1997-10-31,-2.46, 4.41, 4.65, 2.44, 1.99, 8.86, repro,
1997-11-01,-4.01, 6.31, 1.58, 2.36, 1.88, 8.52, repro,
1997-11-02,-3.20, 7.30, 6.98, 2.67, 2.08, 9.40, repro,
1997-11-03,-3.66, 5.74, 9.12, 2.58, 1.99, 9.05, repro,
1997-11-04,-2.50, 6.00, -2.67, 2.44, 1.95, 8.99, repro,
1997-11-05,-1.92, 6.33, -0.34, 2.54, 1.98, 8.94, repro,
1997-11-06,-2.80, 4.82, 2.12, 2.82, 2.17, 9.89, repro,
1997-11-07,-4.00, 6.11, 1.48, 2.54, 2.04, 9.00, repro,
1997-11-08,-3.12, 5.84, 4.29, 2.33, 1.85, 8.36, repro,
1997-11-09,-3.47, 4.58, 7.99, 2.34, 1.89, 8.54, repro,
1997-11-10,-2.69, 5.14, 6.24, 2.29, 1.88, 8.66, repro,
1997-11-11,-3.75, 5.33, 7.79, 2.43, 1.99, 9.07, repro,
1997-11-12,-4.24, 5.61, 7.53, 2.51, 1.93, 8.76, repro,
1997-11-13,-5.02, 5.96, 17.44, 2.35, 1.86, 8.31, repro,
1997-11-14,-3.83, 6.55, 15.74, 2.75, 2.22, 9.69, repro,
1997-11-15,-2.56, 4.19, -0.36, 2.52, 1.96, 8.88, repro,
1997-11-16,-5.16, 6.60, 9.63, 2.34, 1.87, 8.54, repro,
1997-11-17,-2.72, 5.59, -7.47, 2.58, 1.98, 9.52, repro,
1997-11-18,-2.70, 5.80, 7.02, 2.43, 1.96, 8.76, repro,
1997-11-19,-5.35, 6.17, 5.62, 2.61, 2.07, 9.28, repro,
1997-11-20,-1.66, 6.29, 9.95, 2.61, 2.04, 9.40, repro,
1997-11-21,-0.85, 3.46, 4.00, 3.27, 2.46, 11.87, repro,
1997-11-22,-4.30, 7.13, 21.50, 2.69, 2.06, 9.74, repro,
1997-11-23,-3.63, 5.90, 3.28, 2.57, 1.95, 8.73, repro,
1997-11-24,-3.42, 5.73, 14.29, 2.64, 1.96, 9.46, repro,
1997-11-25,-4.35, 6.94, 9.42, 2.36, 1.84, 8.82, repro,
1997-11-26,-3.63, 4.09, 14.76, 2.84, 2.12, 9.88, repro,
1997-11-27,-5.77, 4.23, 11.63, 2.39, 1.93, 8.55, repro,
1997-11-28,-4.00, 6.30, 5.97, 2.35, 1.84, 8.41, repro,
1997-11-29,-4.44, 8.30, -0.31, 2.41, 1.85, 8.41, repro,
1997-11-30,-3.53, 6.56, 11.54, 2.33, 1.82, 8.15, repro,
1997-12-01,-3.78, 6.34, 1.12, 2.38, 1.85, 8.41, repro,
1997-12-02,-4.63, 6.01, 4.45, 2.35, 1.84, 8.32, repro,
1997-12-03,-3.50, 6.26, -0.33, 2.35, 1.90, 8.66, repro,
1997-12-04,-4.20, 6.67, 2.06, 2.28, 1.82, 8.18, repro,
1997-12-05,-4.12, 7.53, -1.10, 2.49, 1.90, 8.90, repro,
1997-12-06,-4.61, 4.23, -1.92, 2.52, 2.01, 9.00, repro,
1997-12-07,-3.54, 5.54, 3.17, 2.21, 1.79, 7.98, repro,
1997-12-08,-1.54, 5.51, 0.67, 2.33, 1.81, 8.45, repro,
1997-12-09,-3.43, 7.08, 0.77, 2.21, 1.78, 7.81, repro,
1997-12-10,-4.26, 6.91, -8.05, 2.44, 1.91, 8.78, repro,
1997-12-11,-3.22, 6.56, -11.67, 2.30, 1.84, 8.22, repro,
1997-12-12,-3.29, 6.61, -5.37, 2.20, 1.76, 8.20, repro,
1997-12-13,-3.27, 6.38, -3.88, 2.28, 1.82, 8.23, repro,
1997-12-14,-4.20, 5.12, 1.76, 2.24, 1.80, 8.22, repro,
1997-12-15,-3.61, 6.24, 4.76, 2.39, 1.93, 8.73, repro,
1997-12-16,-3.77, 7.44, -0.89, 2.27, 1.76, 8.10, repro,
1997-12-17,-3.86, 6.85, 1.96, 2.25, 1.74, 7.95, repro,
1997-12-18,-3.18, 7.03, 0.00, 2.24, 1.79, 7.93, repro,
1997-12-19,-2.77, 7.47, -3.41, 2.16, 1.76, 7.95, repro,
1997-12-21,-2.84, 8.12, 2.92, 2.31, 1.84, 8.20, repro,
1997-12-22,-5.15, 6.00, -3.73, 2.29, 1.85, 8.25, repro,
1997-12-23,-3.31, 6.87, -0.99, 2.35, 1.89, 8.34, repro,
1997-12-24,-3.81, 5.22, 0.01, 2.28, 1.90, 8.23, repro,
1997-12-25,-1.89, 7.34, -9.02, 2.33, 1.83, 8.31, repro,
1997-12-26,-1.53, 6.51, -10.98, 2.28, 1.79, 7.95, repro,
1997-12-27,-2.91, 6.77, -10.95, 2.31, 1.95, 8.41, repro,
1997-12-28,-3.68, 8.27, -11.13, 2.28, 1.89, 8.18, repro,
1997-12-29,-2.92, 7.05, -2.63, 2.34, 1.92, 8.51, repro,
1997-12-30,-1.69, 6.45, -12.52, 2.51, 2.11, 9.60, repro,
1997-12-31,-1.76, 5.90, -12.08, 2.23, 1.85, 8.02, repro,
1998-01-01,-3.94, 6.56, 0.49, 2.34, 1.88, 8.18, repro,
1998-01-02,-3.75, 6.14, 13.34, 2.25, 1.86, 8.07, repro,
1998-01-03,-1.51, 7.56, 3.40, 2.25, 1.80, 8.15, repro,
1998-01-04,-3.22, 6.48, 2.71, 2.23, 1.82, 7.93, repro,
1998-01-05,-2.50, 5.12, -10.86, 2.28, 1.92, 8.20, repro,
1998-01-06,-2.61, 6.55, -11.80, 2.44, 2.10, 9.25, repro,
1998-01-07,-2.79, 6.04, -8.73, 2.38, 2.00, 8.47, repro,
1998-01-08,-3.63, 6.65, -8.77, 2.45, 2.07, 9.03, repro,
1998-01-09,-4.01, 7.42, -3.19, 2.18, 1.80, 7.81, repro,
1998-01-10,-3.76, 6.15, 0.21, 2.21, 1.82, 7.85, repro,
1998-01-11,-3.33, 7.57, -9.37, 2.37, 2.03, 8.67, repro,
1998-01-12,-2.63, 8.89, -5.61, 2.37, 1.94, 8.62, repro,
1998-01-13,-3.98, 6.32, -7.75, 2.51, 2.10, 9.49, repro,
1998-01-14,-2.44, 7.60, -6.56, 2.32, 1.89, 8.32, repro,
1998-01-18,-5.71, 5.99, -9.59, 4.74, 3.91, 15.71, repro,
1998-01-19,-3.50, 6.89, -12.23, 2.18, 1.78, 7.70, repro,
1998-01-20,-2.92, 8.20, -11.83, 2.21, 1.84, 8.03, repro,
1998-01-21,-2.68, 7.88, -14.15, 2.23, 1.81, 8.00, repro,